Al Kharj Air Base, Saudi Arabia

6:56 AM AST on August 25, 2016 (GMT +0300)
Prince Sultan Air Base

Weather History for OEKJ - October, 2012

Change the Weather History Date:

Tuesday, October 9, 2012

  Actual Average Record
Temperature  
Mean Temperature 86 °F -  
Max Temperature 98 °F - - ()
Min Temperature 75 °F - - ()
Cooling Degree Days 22    
Growing Degree Days 36 (Base 50)    
Moisture  
Dew Point 31 °F    
Average Humidity 13    
Maximum Humidity 21    
Minimum Humidity 9    
Precipitation  
Precipitation 0.00 in - - ()
Sea Level Pressure  
Sea Level Pressure 29.97 in    
Wind  
Wind Speed 8 mph ()    
Max Wind Speed 13 mph    
Max Gust Speed -    
T = Trace of Precipitation, MM = Missing Value Source: Averaged Metar Reports

Daily Weather History Graph

Daily Weather History Graph

Search for Another Location

Airport or City:

Trip Planner

Search our weather history database for the weather conditions in past years. The results will help you decide how hot, cold, wet, or windy it might be!

Date:

Astronomy

Oct. 09, 2012 Rise Set
Actual Time 5:44 AM AST 5:28 PM AST
Civil Twilight 5:21 AM AST 5:51 PM AST
Nautical Twilight 4:55 AM AST 6:17 PM AST
Astronomical Twilight 4:29 AM AST 6:44 PM AST
Moon No Moon Rise 1:05 PM AST (10/9)
Length of Visible Light 12h 29m
Length of Day
11h 44m
Last Quarter, 40% of the Moon is Illuminated
Oct 9
Last Quarter
Oct 15
New
Oct 22
First Quarter
Oct 29
Full
Nov 7
Last Quarter

Hourly Weather History & Observations

Time (AST) Temp. Dew Point Humidity Pressure Visibility Wind Dir Wind Speed Gust Speed Precip Events Conditions
3:00 AM 82.4 °F 32.0 °F 16% 29.95 in - South 12.7 mph - N/A   Clear
4:00 AM 75.2 °F 32.0 °F 21% 29.95 in - South 12.7 mph - N/A   Clear
5:00 AM 75.2 °F 32.0 °F 21% 29.98 in - SSE 10.4 mph - N/A   Clear
6:00 AM 75.2 °F 32.0 °F 21% 29.98 in - Calm Calm - N/A   Clear
7:00 AM 78.8 °F 32.0 °F 18% 30.01 in - Calm Calm - N/A   Clear
8:00 AM 84.2 °F 32.0 °F 15% 30.01 in - South 8.1 mph - N/A   Clear
9:00 AM 91.4 °F 32.0 °F 12% 30.01 in - South 12.7 mph - N/A   Clear
10:00 AM 95.0 °F 32.0 °F 11% 30.01 in - South 11.5 mph - N/A   Clear
11:00 AM 95.0 °F 32.0 °F 11% 29.98 in - SSE 10.4 mph - N/A   Clear
12:00 PM 96.8 °F 32.0 °F 10% 29.98 in - SSE 9.2 mph - N/A   Clear
1:00 PM 98.6 °F 32.0 °F 10% 29.95 in - SSW 8.1 mph - N/A   Clear
2:00 PM 98.6 °F 32.0 °F 10% 29.95 in - SSE 6.9 mph - N/A   Clear
3:00 PM 98.6 °F 30.2 °F 9% 29.92 in - ESE 10.4 mph - N/A   Clear
5:00 PM 96.8 °F 28.4 °F 9% 29.92 in - ESE 10.4 mph - N/A   Clear
6:00 PM 91.4 °F 28.4 °F 10% 29.92 in - SE 6.9 mph - N/A   Clear
7:00 PM 89.6 °F 28.4 °F 11% 29.95 in - SE 5.8 mph - N/A   Clear
8:00 PM 84.2 °F 28.4 °F 13% 29.95 in - SE 10.4 mph - N/A   Clear
9:00 PM 82.4 °F 28.4 °F 14% 29.95 in - SE 11.5 mph - N/A   Clear
10:00 PM 82.4 °F 26.6 °F 13% 29.98 in - SSE 11.5 mph - N/A   Clear